Regional Weather Roundup
Issued by NWS Charleston, SC

Current Version | Previous Version | Graphics & Text | Print | Product List | Glossary On
Versions: 1 2 3 4 5 6 7 8 9 10 11 12 13 14 15 16 17 18 19 20 21 22 23 24 25 26 27 28 29 30 31 32 33 34 35 36 37 38 39 40 41 42 43 44 45 46 47 48 49 50
000
ASUS42 KCHS 281313
RWRCHS

REGIONAL WEATHER ROUNDUP
NATIONAL WEATHER SERVICE CHARLESTON SC
900 AM EDT SUN AUG 28 2016

NOTE: "FAIR" INDICATES FEW OR NO CLOUDS BELOW 12,000 FEET WITH NO
SIGNIFICANT WEATHER AND/OR OBSTRUCTIONS TO VISIBILITY.

NOT ALL STATIONS ARE QUALITY CONTROLLED. USE DATA WITH CAUTION...
ESPECIALLY DEWPOINT OBSERVATIONS.

SCZ027-030-031-034>040-042>050-281400-
...SOUTHEAST SOUTH CAROLINA...

CITY           SKY/WX    TMP DP  RH WIND       PRES   REMARKS
N CHARLESTON   MOSUNNY   80  73  79 NE9       30.11R
WATERFRONT PRK   N/A     80  76  87 N8        30.09R
MOUNT PLEASANT FAIR      81  75  83 NE5       30.11S
JOHNS ISLAND   FAIR      82  77  83 N8        30.11R HX  91
PINOPOLIS        N/A     79  75  89 NE10      30.05R
MONCKS CORNER  FAIR      79  73  83 E8        30.12S
SUMMERVILLE    FAIR      79  79 100 N3        30.14R
BEAUFORT MCAS  SUNNY     82  75  79 NE8       30.11R
BEAUFORT ARPT  FAIR      81  75  83 NE8       30.10S
HILTON HEAD IS MOSUNNY  N/A N/A N/A N9        30.11R
WALTERBORO     SUNNY     81  81 100 NE6       30.13S HX  91
ALLENDALE      FAIR      79  73  83 NE5       30.13R

...SOUTHERN MIDLANDS AND PEE DEE...

CITY           SKY/WX    TMP DP  RH WIND       PRES   REMARKS
GEORGETOWN     FAIR      77  73  88 N6        30.13S
KINGSTREE      FAIR      79  72  78 NE3       30.14R
ORANGEBURG     SUNNY     80  73  79 NE7       30.15R
BARNWELL       NOT AVBL
AIKEN          CLOUDY    75  70  83 E3        30.19R
MANNING        FAIR      77  72  83 N3        30.14R
COLUMBIA       MOSUNNY   81  71  71 VRB5      30.15R
SUMTER         MOSUNNY   79  72  80 NE6       30.14R
FLORENCE       SUNNY     81  73  76 NE8       30.15R
MYRTLE BEACH   PTSUNNY   81  68  65 NE9       30.14R
N MYRTLE BEACH PTSUNNY   80  75  84 NE8       30.12R

$$

GAZ063-065-086>088-099>101-113>116-118-119-134>141-150-281400-
...SOUTHEAST GEORGIA...

CITY           SKY/WX    TMP DP  RH WIND       PRES   REMARKS
SAVANNAH ARPT  MOSUNNY   82  73  74 NE8       30.10S
HUNTER AAF     SUNNY     81  79  94 NE9       30.07S HX  91
FORT STEWART   SUNNY     79  74  84 NE7       30.07S HAZE
STATESBORO     SUNNY     79  75  86 NE3       30.12S
SYLVANIA       NOT AVBL
CLAXTON        FAIR      80  75  85 N5        30.11S HAZE

...CSRA...CENTRAL AND FAR SOUTHEAST GEORGIA...

CITY           SKY/WX    TMP DP  RH WIND       PRES   REMARKS
THOMSON        SUNNY     80  75  84 MISG      30.19S
AUGUSTA-BUSH   MOSUNNY   80  71  74 CALM      30.14R
AUGUSTA-DANIEL PTSUNNY   80  70  71 CALM      30.15S
SWAINSBORO     FAIR      79  72  78 E6        30.14S
VIDALIA        SUNNY     79  77  94 E6        30.12S
EASTMAN        FAIR      80  75  86 E6        30.15R
HAZLEHURST     FAIR      79  78  98 CALM      30.10S
ALMA           MOSUNNY   79  74  84 E5        30.09S
WAYCROSS         N/A     81  78  90 E7        30.09R HX  90
JESUP          FAIR      81  79  94 E6        30.09S
BAXLEY         FAIR      79  79 100 NE6       30.09F
BRUNSWICK      MOSUNNY   84  77  79 NE12      30.08R HX  94
SAINT SIMONS   MOSUNNY   84  72  67 MISG      30.06S

$$

SCZ027-028-034-036>038-045-046-048>050-GAZ119-141-281400-
...LAKE AND SUPPLEMENTAL COASTAL OBSERVATIONS...

STATION/POSITION TIME  TEMP    WIND        PRES    WAVE   SWELL
                       AIR SEA DIR/SP/G            HT/PER HT/PER/DIR
                 (UTC) (F)     (DEG/KT/KT) (MB)    (FT/S) (FT/S/D)
WINYAH BAY       1145   78      10/  3     1019.0
LAKE MURRAY      1200   78      30/  1/  3 1020.3R
ACE BASIN NERRS  NOT AVBL
FORT PULASKI     1200      85   60/ 12/ 14 1019.1R
SAPELO ISLAND    1200   82      60/  6     1018.0S

$$

ANZ835-935-AMZ111-154-330-350-352-354-370-450-454-472-281400-
...C-MAN AND BUOY OBSERVATIONS...

STATION/POSITION TIME  TEMP    WIND        PRES    WAVE   SWELL
                       AIR SEA DIR/SP/G            HT/PER HT/PER/DIR
                 (UTC) (F)     (DEG/KT/KT) (MB)    (FT/S) (FT/S/D)
BUOY 41004       1250   84 84   60/ 12/ 14 1018.5R   4/ 8   3/130/ 8
BUOY 41008       1250   83 85   60/ 14/ 16 1017.8R   3/ 9   2/100/ 9
FOLLY BEACH CMAN 1200   80      40/ 10/ 11 1019.3R
CAPERS NEARSHORE 1208   81 84   40/ 12/ 16 1019.1R
FRIPP NEARSHORE  1208   84 86   80/ 12/ 17 1018.3R


STATION/POSITION TIME  TEMP    WIND        PRES    WAVE   SWELL
                       AIR SEA DIR/SP/G            HT/PER HT/PER/DIR
                 (UTC) (F)     (DEG/KT/KT) (MB)    (FT/S) (FT/S/D)
5E ST. MARYS GA  1201      85                N/A     4/ 9
FRYING PAN BUOY  1200   82 84   40/ 12/ 14 1018.6R
BUOY 41025       1250   83 85  100/  8/ 10 1019.5R   3/ 8   3/110/ 8
CAPE LOOKOUT NC  1300   81      10/  6/  7 1019.6R
BUOY 41002       1250   82 84   70/ 10/ 12 1017.8R   3/ 8   3/120/ 8
BUOY 41010       NOT AVBL
ST AUGUSTINE FL  1300   80 83   70/  8/ 10 1018.1R


$$




USA.gov is the U.S. government's official web portal to all federal, state and local government web resources and services.